COSMOS 1275 DEB, 13466

Orbit data source: Space-Track

COSMOS 1275 DEB, 13466 is space debris in LEO originally from a launch on Thu, 04 Jun 1981 UTC launched from the Plesetsk Missile And Space Complex (PKMTR). Debris objects in space refer to the collection of defunct objects orbiting the Earth. Examples of debris include non-operational satellites, rocket bodies, and fragments generated from explosions, collisions, or faulty payload assembly.

Loading next visibility...
Identifier
13466, 1981-053FN
Orbit
LEO
Country
Flag of CISCIS
Related business
Manufacturer
Unknown
Mission
Spacecraft
Bus & Motor
Unknown
Mass
Unknown
Launch date (UTC)
1981-06-04 (45 years ago)
Launch vehicle
Unknown
Launch site
Plesetsk Missile And Space Complex (PKMTR)
Object type
Payload
Rocket body
Debris
Shape & HBR
Unknown shape, 0.1 m
Radar Cross Section
Small (<0.1 m²)

Expand to show TLE details & history
Last TLE update: 4 hours ago

TLE from 4 hours ago
0 COSMOS 1275 DEB
1 13466U 81053FN  26119.61703770  .00000860  00000-0  10543-2 0  9996
2 13466  83.0729 220.2626 0139156   7.7150  55.9147 13.60546110174365
Epoch: 2026-04-29T14:48Z
TLE epoch observation values (Epoch: 2026-04-29T14:48:32.057Z)
Latitude
64.16948°
Longitude
155.01184°
Altitude
987.949 km
Speed
7.392 km/s
True Right ascension
15h 38m 53s
True Declination
64° 02' 19"
Sunlit
Object was in daylight at epoch
Visualization orbit readout
Latitude
Unknown
Longitude
Unknown
Altitude
Unknown
Speed
Unknown
Apparent Right ascension
Unknown
Apparent Declination
Unknown
Sunlit
N/A
Visualization observer readout
Local Sidereal Time
02:26:28
Azimuth
Unknown
Elevation
Unknown
Doppler factor
Unknown
Orbital elements
Apogee altitude
1,133.972 km
Perigee altitude
927.77 km
Semi-major axis
7,409.008 km
Eccentricity
0.01392
Inclination
83.0729°
RAAN
220.2626°
Arg. of periapsis
7.715°
True anomaly
57.24824°
Mean anomaly
55.9147°
Eccentric anomaly
56.58018°
Mean motion
3.40332 °/min
Orbital period
105.78 mins
BSTAR
0.0010543
Loading maneuver chart data...
Computing Atmospheric mass density...
Loading historical data...
Loading historical data...
Loading historical data...
Loading historical data...
Loading historical data...
Loading historical data...
Loading historical data...

Documentation

Showing up to 5 results
|